Temp
95 91 83 84 84 84 84 84 84 84 84 84 84 84 82 83 83 83 83 83 84 84 84 84 84 83 84 85 84 84 84 83 83 83 84 84 84 84 84 84 86 89 83
98 93 83 84 84 84 84 84 84 83 83 83 83 84 83 84 84 83 84 84 84 84 84 84 84 83 85 84 84 84 84 83 84 85 84 84 84 84 84 85 85 85 83
98 94 90 84 84 84 83 84 84 84 83 84 84 84 84 84 84 84 84 84 84 84 85 85 85 84 85 84 84 84 84 84 84 85 86 90 88 84 84 84 84 83 83
100 99 94 83 84 84 84 84 84 84 84 84 84 84 84 84 84 84 84 84 84 84 85 85 85 85 84 84 84 83 83 83 85 86 89 94 92 84 83 84 84 83 83
100 100 91 83 84 84 84 84 84 84 84 84 84 84 84 84 84 84 84 84 85 85 85 85 85 84 84 84 84 84 84 84 85 86 90 93 93 86 83 83 83 83 84
102 98 86 84 84 84 84 84 84 84 84 84 84 84 84 85 85 84 84 84 85 85 85 85 85 84 84 84 84 84 84 85 87 92 91 87 90 84 85 84 84 83 83
101 96 92 84 84 84 84 84 84 84 84 84 84 84 85 84 84 84 85 85 85 85 85 84 84 84 84 84 84 84 84 85 87 91 91 92 87 83 84 84 83 83 83
102 100 93 84 84 84 83 84 84 84 84 84 84 85 85 84 84 85 85 86 86 85 85 84 84 85 85 84 84 84 83 86 87 87 92 90 82 83 84 83 83 83 83
100 99 96 93 87 84 84 84 84 84 84 85 85 85 85 85 85 85 85 85 85 85 85 85 84 85 85 84 84 84 84 85 90 91 94 91 82 84 84 84 83 83 83
100 100 93 96 93 91 91 84 85 85 85 85 85 84 84 85 85 85 84 85 85 84 85 85 85 84 85 84 84 84 84 85 90 91 82 85 82 84 83 83 82 83 83
99 99 101 98 94 92 92 88 85 85 85 85 85 85 85 93 93 89 85 85 85 85 84 85 85 85 84 84 84 84 84 94 96 96 90 81 82 84 84 83 83 82 83
98 100 101 99 95 96 96 91 90 91 93 93 93 90 93 95 87 93 87 85 85 85 85 84 85 85 86 92 91 85 90 94 95 96 90 82 83 84 84 83 82 82 82
100 100 99 98 97 99 95 96 95 93 92 88 90 89 94 96 94 91 92 91 92 86 92 91 91 88 85 87 92 86 94 89 92 95 84 82 83 84 82 83 83 82 82
99 98 100 98 97 99 98 96 95 95 88 88 92 93 91 91 85 90 84 88 87 91 90 88 91 92 89 92 93 87 89 78 83 85 85 82 82 83 84 82 83 83 82
98 99 100 97 93 94 94 97 97 97 93 94 93 95 86 88 93 93 92 93 92 96 94 94 87 88 91 91 90 87 90 89 83 81 77 83 82 82 82 83 82 82 82
99 99 100 96 93 95 94 94 96 98 98 93 89 93 91 86 90 84 88 86 86 94 94 90 79 80 85 83 78 80 85 80 77 78 78 78 82 81 81 81 82 82 82
99 99 98 96 96 93 93 92 96 97 100 98 88 93 93 91 91 92 87 86 89 88 93 90 87 87 86 79 80 76 87 82 79 78 77 77 78 82 81 81 81 81 81
99 97 97 99 98 95 95 93 96 97 98 98 94 95 92 92 90 90 94 88 88 90 94 94 91 83 86 78 74 74 76 86 85 81 84 78 76 77 80 82 81 80 82
99 96 94 95 96 94 93 94 95 95 96 90 94 93 91 92 91 91 93 94 93 93 87 90 86 84 80 81 76 73 72 78 87 84 77 75 77 75 75 80 80 80 81
98 96 94 94 94 93 93 92 95 96 96 95 92 86 91 93 91 90 82 89 91 91 87 82 85 86 84 82 74 76 84 85 84 84 74 76 75 75 74 75 76 76 80
97 95 93 91 91 92 92 91 93 93 94 94 87 91 92 90 87 89 87 87 90 88 85 85 84 84 81 79 76 73 80 88 80 84 85 83 73 75 74 73 73 77 77
98 95 93 91 90 90 93 93 95 94 96 96 96 89 93 92 92 90 88 87 89 86 85 85 84 80 81 81 81 70 69 72 78 82 77 76 81 75 73 76 76 76 74
98 96 93 91 90 89 93 93 93 95 94 94 94 94 93 92 92 91 89 89 87 90 88 87 86 84 78 82 74 73 70 73 74 79 75 78 77 74 72 75 75 75 77
100 99 96 93 91 90 91 92 89 90 90 87 94 96 96 92 92 91 91 90 88 91 82 88 88 85 82 79 78 75 80 84 73 73 81 77 75 73 71 72 80 74 78
102 101 98 94 92 92 90 91 91 89 94 96 90 92 93 92 94 94 92 89 87 89 91 90 87 86 86 81 80 82 78 84 82 75 73 73 78 78 77 76 74 74 74
105 102 100 93 91 91 90 88 90 89 90 94 94 91 94 94 94 92 93 91 88 89 89 89 88 87 85 86 86 86 83 81 78 75 72 75 78 79 82 85 76 82 79
MSLP
1013.39 1015.29 1016.22 1016.45 1016.65 1016.72 1016.79 1016.89 1017.16 1017.32 1017.45 1017.43 1017.49 1017.49 1017.45 1017.84 1017.88 1017.84 1018.05 1018.02 1018.02 1018.06 1018.13 1018.13 1018.30 1018.49 1018.64 1018.64 1018.76 1018.83 1018.99 1019.12 1019.25 1019.32 1019.32 1019.48 1019.58 1019.59 1019.61 1019.61 1019.44 1019.59 1020.05
1013.05 1015.09 1016.31 1016.64 1016.81 1016.97 1017.11 1017.26 1017.42 1017.64 1017.76 1017.83 1017.99 1017.98 1018.06 1018.11 1018.00 1018.11 1018.25 1018.20 1018.30 1018.46 1018.33 1018.40 1018.74 1018.92 1018.92 1019.01 1019.15 1019.27 1019.44 1019.54 1019.49 1019.52 1019.55 1019.67 1019.97 1019.80 1019.89 1019.86 1019.87 1020.32 1020.50
1013.31 1015.09 1016.02 1016.72 1016.95 1017.17 1017.33 1017.44 1017.63 1017.83 1017.98 1017.97 1018.08 1018.22 1018.18 1018.20 1018.26 1018.36 1018.37 1018.42 1018.55 1018.62 1018.64 1018.76 1018.95 1019.14 1019.15 1019.37 1019.45 1019.64 1019.61 1019.55 1019.42 1019.41 1019.32 1019.48 1019.89 1020.09 1020.12 1020.37 1020.54 1020.76 1020.88
1013.23 1014.31 1015.67 1016.80 1017.05 1017.33 1017.44 1017.58 1017.73 1017.92 1018.04 1018.16 1018.29 1018.35 1018.35 1018.40 1018.47 1018.55 1018.58 1018.73 1018.83 1018.89 1018.95 1019.08 1019.19 1019.33 1019.58 1019.73 1019.98 1020.00 1019.96 1019.91 1019.78 1019.54 1018.89 1018.93 1019.69 1020.59 1020.40 1020.65 1020.83 1021.00 1021.07
1013.48 1014.02 1016.20 1016.88 1017.22 1017.43 1017.63 1017.72 1017.79 1018.02 1018.25 1018.39 1018.40 1018.46 1018.48 1018.60 1018.69 1018.88 1018.95 1019.02 1019.04 1019.17 1019.26 1019.44 1019.55 1019.74 1019.89 1020.05 1020.22 1020.12 1019.98 1019.89 1019.71 1019.42 1019.15 1019.25 1019.75 1020.86 1020.93 1020.89 1021.08 1021.10 1021.11
1012.93 1014.59 1016.64 1017.06 1017.33 1017.52 1017.73 1017.92 1018.04 1018.22 1018.47 1018.59 1018.64 1018.73 1018.73 1018.85 1018.93 1019.16 1019.26 1019.43 1019.35 1019.46 1019.65 1019.80 1019.97 1020.13 1020.13 1020.30 1020.41 1020.44 1020.34 1019.97 1019.40 1019.12 1019.34 1019.74 1020.38 1021.21 1021.11 1021.16 1021.28 1021.51 1021.60
1013.08 1015.24 1016.46 1017.19 1017.44 1017.72 1017.87 1018.08 1018.10 1018.38 1018.48 1018.64 1018.78 1018.90 1018.96 1019.10 1019.18 1019.34 1019.31 1019.57 1019.57 1019.80 1019.95 1020.14 1020.29 1020.37 1020.43 1020.50 1020.62 1020.67 1020.55 1020.18 1019.70 1019.52 1019.52 1020.01 1021.04 1021.42 1021.43 1021.47 1021.61 1021.77 1021.88
1012.99 1014.51 1016.42 1017.36 1017.59 1017.84 1018.15 1018.26 1018.38 1018.62 1018.73 1018.86 1018.91 1019.10 1019.16 1019.39 1019.41 1019.55 1019.56 1019.70 1019.81 1020.06 1020.22 1020.35 1020.45 1020.46 1020.51 1020.68 1020.89 1020.85 1020.61 1020.39 1020.40 1020.20 1019.91 1020.69 1021.64 1021.67 1021.73 1021.85 1022.01 1022.04 1022.13
1013.26 1014.48 1015.77 1016.68 1017.60 1017.91 1018.21 1018.31 1018.49 1018.77 1018.93 1019.00 1019.11 1019.26 1019.44 1019.57 1019.62 1019.81 1019.92 1020.03 1020.17 1020.32 1020.39 1020.50 1020.58 1020.56 1020.66 1020.86 1020.97 1021.00 1020.75 1020.62 1020.12 1020.08 1020.05 1020.92 1022.01 1022.04 1022.07 1022.13 1022.20 1022.25 1022.40
1013.36 1014.01 1015.18 1015.95 1016.91 1017.33 1017.91 1018.51 1018.57 1018.73 1018.95 1019.11 1019.26 1019.44 1019.62 1019.70 1019.85 1020.03 1020.06 1020.36 1020.47 1020.65 1020.49 1020.67 1020.63 1020.67 1020.80 1021.04 1021.13 1021.06 1020.74 1020.68 1020.37 1020.22 1020.90 1021.66 1022.19 1022.22 1022.32 1022.45 1022.41 1022.48 1022.60
1013.52 1013.93 1014.35 1015.40 1016.54 1016.97 1017.38 1018.30 1018.64 1018.88 1019.03 1019.19 1019.38 1019.55 1019.63 1019.09 1019.25 1019.75 1020.34 1020.49 1020.65 1020.73 1020.76 1020.79 1020.74 1020.83 1020.94 1021.10 1021.19 1021.01 1020.95 1020.08 1019.75 1019.47 1020.94 1021.95 1022.32 1022.38 1022.51 1022.64 1022.73 1022.83 1022.82
1013.31 1013.68 1014.32 1015.11 1016.22 1016.36 1016.61 1017.78 1017.96 1018.22 1018.29 1018.39 1018.49 1019.06 1018.63 1018.48 1019.06 1019.24 1020.33 1020.67 1020.77 1020.79 1020.77 1020.76 1020.70 1020.82 1020.72 1020.54 1020.71 1021.01 1020.46 1020.19 1019.99 1019.77 1021.16 1022.01 1022.35 1022.55 1022.60 1022.84 1022.89 1022.95 1022.99
1013.28 1013.70 1014.86 1015.27 1015.36 1015.67 1016.38 1016.79 1017.23 1017.88 1018.25 1018.83 1018.72 1018.58 1018.74 1018.52 1019.03 1019.03 1019.80 1020.12 1020.04 1020.57 1020.03 1020.17 1020.29 1020.35 1020.55 1020.45 1020.29 1020.38 1019.84 1020.11 1019.98 1020.07 1021.53 1022.12 1022.46 1022.48 1022.78 1022.78 1022.90 1023.03 1023.04
1013.30 1014.05 1014.59 1015.55 1015.58 1015.58 1016.24 1016.70 1017.21 1017.11 1018.24 1018.93 1018.78 1018.50 1018.92 1018.75 1019.25 1019.31 1019.72 1019.23 1019.42 1019.14 1019.52 1019.55 1019.84 1020.07 1020.23 1020.07 1020.02 1020.29 1020.18 1020.17 1020.20 1020.19 1021.55 1022.11 1022.55 1022.56 1022.74 1022.92 1023.08 1023.19 1023.14
1013.26 1013.99 1014.40 1015.64 1016.39 1016.48 1016.66 1016.30 1016.64 1016.75 1017.56 1017.95 1018.30 1018.28 1018.73 1018.96 1018.79 1018.93 1019.47 1019.11 1018.93 1018.80 1019.19 1019.64 1020.60 1020.83 1020.37 1020.41 1020.70 1020.91 1020.67 1020.60 1020.92 1021.34 1021.99 1022.31 1022.44 1022.63 1022.72 1022.97 1023.18 1023.30 1023.24
1013.12 1013.84 1014.44 1015.68 1016.62 1016.68 1016.62 1016.82 1016.61 1016.68 1016.58 1017.39 1017.98 1018.26 1018.81 1018.91 1018.84 1019.32 1019.26 1019.36 1019.19 1018.79 1019.07 1020.13 1021.26 1021.44 1021.11 1021.43 1021.97 1021.85 1021.57 1021.92 1022.08 1022.19 1022.48 1022.56 1022.57 1022.63 1022.81 1023.16 1023.28 1023.33 1023.39
1013.23 1013.88 1014.59 1015.53 1016.26 1016.78 1017.02 1017.42 1016.99 1016.91 1016.54 1016.88 1018.02 1018.46 1018.61 1018.73 1018.98 1018.77 1019.03 1019.25 1018.93 1019.15 1019.25 1020.19 1020.61 1020.51 1020.77 1021.67 1021.81 1022.13 1021.45 1022.07 1022.07 1022.34 1022.36 1022.66 1022.56 1022.70 1022.80 1023.14 1023.26 1023.27 1023.29
1013.19 1013.98 1014.73 1015.24 1015.70 1016.59 1016.71 1017.40 1016.93 1016.93 1016.72 1016.75 1017.35 1018.09 1018.70 1018.91 1019.13 1019.21 1018.73 1018.84 1019.14 1019.14 1019.28 1019.18 1019.52 1020.65 1020.90 1021.64 1022.05 1022.19 1021.90 1021.44 1021.60 1021.84 1022.03 1022.46 1022.70 1022.74 1022.85 1022.81 1022.98 1023.26 1023.52
1013.12 1014.06 1014.94 1015.44 1015.62 1016.32 1016.72 1017.06 1017.06 1017.08 1016.79 1017.05 1017.19 1017.59 1018.51 1018.70 1019.02 1019.06 1018.49 1018.46 1018.92 1018.77 1019.33 1019.33 1019.79 1020.38 1021.00 1021.37 1021.94 1022.10 1022.10 1021.76 1020.78 1021.52 1022.05 1022.27 1022.62 1022.80 1022.83 1022.83 1022.88 1023.20 1023.47
1013.15 1014.01 1014.90 1015.43 1015.79 1016.31 1016.74 1017.01 1016.92 1016.83 1016.83 1016.77 1017.32 1017.82 1018.37 1018.33 1018.84 1019.29 1019.24 1019.16 1019.24 1018.89 1019.28 1019.56 1019.92 1020.37 1020.81 1021.20 1021.67 1021.87 1021.42 1020.98 1020.97 1020.89 1021.76 1021.98 1022.19 1022.66 1022.80 1023.05 1023.03 1023.04 1023.38
1012.85 1013.72 1014.63 1015.33 1015.85 1016.33 1016.59 1016.77 1016.66 1016.63 1016.76 1016.90 1017.36 1017.59 1017.99 1018.37 1018.54 1019.07 1018.79 1019.09 1019.09 1019.32 1019.60 1019.94 1020.30 1020.41 1020.81 1021.34 1021.57 1021.50 1020.68 1020.21 1020.37 1020.47 1020.64 1021.00 1021.91 1022.26 1022.55 1022.87 1022.93 1022.92 1023.06
1012.25 1013.20 1014.21 1015.00 1015.66 1016.14 1016.22 1016.30 1016.24 1016.33 1016.32 1016.44 1016.70 1017.56 1017.89 1018.29 1018.29 1018.91 1018.97 1018.66 1018.60 1018.56 1019.23 1019.75 1019.88 1020.24 1020.46 1020.63 1020.58 1021.46 1020.98 1020.73 1020.51 1020.34 1020.68 1021.23 1021.22 1021.78 1022.18 1022.26 1022.40 1022.59 1022.77
1011.37 1012.56 1013.51 1014.46 1015.22 1015.82 1015.74 1016.11 1016.26 1016.21 1016.32 1016.48 1016.59 1016.97 1017.33 1018.01 1018.19 1018.32 1018.64 1018.53 1018.50 1018.55 1018.78 1019.28 1019.49 1019.59 1020.12 1020.38 1020.99 1021.02 1020.57 1020.23 1020.43 1020.30 1020.71 1020.57 1020.40 1021.25 1021.66 1021.65 1021.72 1021.78 1022.11
1010.62 1011.71 1012.77 1013.82 1014.63 1015.39 1015.73 1015.64 1015.71 1015.72 1015.62 1015.90 1016.11 1016.15 1016.44 1017.24 1017.60 1018.07 1018.18 1018.44 1018.50 1018.14 1018.32 1018.74 1018.99 1019.23 1019.66 1019.83 1020.60 1020.74 1020.27 1019.61 1020.04 1019.82 1019.67 1020.04 1020.35 1020.58 1020.70 1021.02 1020.84 1021.08 1021.21
1009.67 1010.79 1011.91 1012.99 1013.92 1014.53 1015.11 1015.23 1015.55 1015.61 1015.29 1015.28 1015.53 1015.73 1016.27 1016.53 1016.79 1017.06 1017.39 1018.11 1018.38 1018.38 1017.90 1018.24 1018.68 1018.86 1018.97 1019.23 1019.23 1019.51 1019.91 1019.33 1019.53 1019.87 1019.26 1019.54 1019.87 1019.99 1020.04 1020.06 1020.14 1020.24 1020.58
1008.68 1009.76 1010.61 1012.03 1013.01 1013.86 1014.48 1014.99 1014.91 1014.99 1015.17 1014.85 1015.05 1015.32 1015.52 1015.60 1015.91 1016.43 1016.61 1017.00 1017.54 1017.86 1017.92 1017.98 1018.38 1018.55 1018.82 1018.64 1018.61 1018.46 1018.58 1018.70 1018.79 1019.22 1019.28 1019.06 1019.05 1018.83 1018.90 1018.56 1019.33 1019.13 1019.42
Wind_Speed
17 16 11 9 9 10 12 12 11 11 12 11 8 10 2 7 9 9 10 12 13 11 10 9 14 13 12 14 14 15 14 15 15 15 15 15 12 11 9 12 12 15 13
22 17 11 10 10 10 12 12 12 12 12 11 9 9 7 8 8 9 10 12 12 13 13 15 14 13 15 14 13 13 14 13 15 16 16 14 11 10 9 12 17 13 12
20 18 14 10 12 11 11 12 12 12 11 11 10 9 9 9 9 9 10 11 12 13 13 14 14 15 14 14 12 12 12 11 12 16 15 10 12 12 13 16 15 15 12
18 16 16 11 11 12 11 11 11 10 11 10 9 10 9 8 10 11 12 12 13 13 13 14 14 14 13 11 12 11 8 7 7 8 2 13 13 11 12 15 14 13 12
16 18 16 13 12 12 11 9 9 9 9 9 8 9 9 9 10 11 12 14 14 13 14 13 14 13 12 12 11 10 5 5 7 9 6 10 10 10 11 12 11 14 9
16 21 15 13 13 10 10 10 9 9 8 9 9 9 9 9 11 11 13 12 14 13 14 12 13 12 13 12 10 8 3 5 10 8 10 7 14 10 10 12 13 12 10
20 17 15 12 11 11 9 7 8 10 10 11 9 10 11 10 11 11 12 14 12 13 11 14 13 12 12 11 10 6 1 8 9 8 6 13 11 10 11 11 11 10 9
17 18 14 11 10 10 9 9 8 11 12 11 11 10 11 10 11 9 12 12 11 12 10 11 10 9 11 11 10 5 4 9 6 8 8 11 8 9 11 11 10 10 8
16 17 14 14 11 9 7 8 9 10 11 10 11 10 10 11 11 9 11 10 11 10 9 10 10 8 10 11 10 6 3 6 4 4 6 9 6 9 8 8 8 8 7
12 14 13 14 12 11 11 7 8 9 10 11 9 9 11 11 10 9 11 9 9 10 12 10 9 10 12 10 9 7 8 6 2 8 3 8 9 7 7 8 6 6 6
10 12 15 14 9 8 11 9 9 8 9 12 10 9 9 8 10 11 11 11 9 10 10 9 9 11 11 9 7 9 9 1 4 7 9 12 8 6 7 6 6 6 6
12 12 11 13 14 13 11 10 7 10 9 8 9 9 8 4 8 13 11 9 9 9 9 8 8 10 12 6 6 8 6 6 2 1 8 11 7 6 6 7 4 6 5
13 10 9 10 8 10 10 8 7 5 6 1 7 6 4 5 6 4 8 8 9 12 8 10 7 4 6 2 4 3 5 4 4 3 11 10 5 5 5 5 5 4 5
14 11 12 12 5 10 7 8 5 7 7 6 5 4 6 3 6 4 2 3 3 6 4 3 7 1 4 3 3 3 4 4 6 2 10 12 6 4 5 4 4 4 3
13 12 12 13 5 6 6 6 9 7 10 9 9 7 6 3 3 5 3 1 2 5 6 3 6 4 2 6 6 6 8 7 8 6 4 9 8 4 2 3 4 4 4
11 12 13 12 9 9 4 3 3 6 9 9 6 6 2 4 4 4 4 4 3 4 6 8 3 2 3 3 4 6 6 6 5 5 3 4 8 6 5 3 3 4 5
10 12 13 11 12 9 7 6 5 4 6 5 9 9 6 3 5 3 4 2 4 4 7 5 6 4 5 0 4 0 4 3 2 2 2 2 4 5 9 8 5 5 5
11 11 10 9 13 10 9 7 6 5 6 6 7 8 7 6 5 5 4 5 3 3 5 4 4 3 2 3 1 1 2 3 4 3 4 2 3 3 6 8 9 4 7
11 11 10 9 8 12 7 7 5 6 5 4 2 6 9 7 6 4 4 3 4 4 2 2 1 2 3 5 4 2 3 5 5 5 1 6 4 5 4 7 7 7 9
12 12 12 10 9 9 8 5 6 6 6 6 7 4 9 7 8 8 4 2 5 4 4 3 3 3 3 4 3 4 7 7 7 6 4 3 4 1 5 4 4 5 11
14 13 13 12 11 9 8 8 7 7 6 5 2 5 7 5 7 7 4 8 8 6 5 4 6 6 4 3 3 2 8 7 5 7 8 8 7 7 5 6 5 3 4
16 15 14 14 12 11 9 8 7 7 7 6 6 6 7 8 7 6 8 6 7 4 5 6 6 5 4 5 2 1 1 2 1 5 2 4 8 6 7 9 10 8 6
17 17 15 15 15 13 10 8 6 6 4 7 6 6 9 8 9 8 8 8 5 4 6 6 7 7 4 4 3 2 1 2 3 3 5 6 6 6 5 8 8 9 9
17 17 17 16 15 14 13 11 10 9 8 5 7 9 6 11 10 9 9 8 6 7 1 6 7 5 5 5 3 6 8 6 3 2 4 6 5 7 9 7 10 9 11
20 17 17 16 15 14 14 12 10 10 8 6 5 5 7 5 9 9 10 9 8 7 8 5 3 5 5 5 6 4 7 6 7 6 5 4 3 7 7 9 6 7 10
18 18 18 16 16 15 15 16 13 12 11 8 8 6 7 8 8 11 11 9 8 8 9 6 7 7 6 7 7 6 7 6 4 5 5 4 6 6 8 8 7 10 8
Wind_Direction
131 123 123 112 102 97 96 107 105 104 103 94 76 83 64 59 81 94 108 101 102 106 97 104 119 108 112 111 106 103 101 102 104 107 109 105 108 121 110 137 136 107 108
116 127 129 116 105 106 103 107 109 110 115 118 109 89 84 78 71 86 98 98 99 100 101 101 115 122 110 108 109 106 113 116 119 116 113 107 101 93 106 77 82 110 109
120 125 129 117 109 107 104 107 110 117 113 105 98 88 78 83 85 92 96 97 96 99 97 104 115 105 111 112 111 112 115 134 141 147 143 103 99 87 92 93 109 116 118
126 138 124 123 112 109 109 112 116 116 112 100 90 86 80 88 88 89 87 97 103 105 103 98 100 99 98 108 106 112 123 133 137 166 173 121 99 88 86 111 112 113 111
136 114 116 127 118 115 111 111 120 127 121 111 98 80 79 89 88 90 99 100 98 99 100 98 97 101 102 100 109 100 131 150 159 219 180 77 91 101 103 114 121 132 132
132 101 126 130 127 120 113 112 116 127 129 126 110 97 92 98 96 97 97 99 105 104 106 106 101 104 100 106 111 108 59 348 296 50 97 70 77 108 106 84 95 98 103
112 120 129 127 124 120 116 116 123 125 127 129 112 102 101 94 101 102 106 111 112 111 112 99 97 99 102 102 98 100 335 302 45 44 83 84 93 110 106 106 110 113 119
122 131 131 132 129 123 121 128 122 114 109 118 110 110 104 99 103 109 105 108 108 106 103 108 110 109 108 105 103 99 336 333 141 90 85 86 102 105 103 105 102 108 108
118 114 137 134 129 124 127 129 121 130 130 119 113 111 111 106 101 110 109 104 103 111 117 112 114 121 122 116 111 112 303 315 153 68 114 112 97 100 101 103 111 110 107
130 136 134 136 149 162 151 131 134 128 135 132 122 124 124 119 120 132 126 105 109 101 109 102 110 123 124 119 129 152 216 233 189 121 11 93 94 103 105 98 98 115 109
145 140 141 138 134 128 130 133 138 131 129 134 141 150 166 143 154 140 86 116 111 103 108 105 117 127 129 130 149 196 217 162 200 86 96 109 112 112 114 101 99 95 96
148 154 127 129 148 173 131 164 140 147 154 167 145 169 210 155 55 99 105 128 129 129 133 147 154 147 177 152 169 209 238 103 253 99 104 114 126 129 115 108 114 105 102
154 140 144 125 185 156 122 162 165 136 110 280 147 168 139 127 163 178 139 165 158 180 176 179 170 180 168 12 177 257 161 150 156 96 116 115 127 137 115 138 131 127 124
149 150 163 136 192 118 160 133 178 161 142 142 183 169 152 204 109 128 55 165 214 145 197 203 137 95 72 106 71 112 315 142 31 32 127 126 139 152 146 156 157 154 142
156 157 151 136 169 112 175 151 169 126 146 154 182 188 91 209 161 188 127 236 323 123 129 144 60 3 116 59 37 38 353 32 357 23 94 132 120 113 144 191 185 186 164
161 159 138 146 156 150 187 169 142 165 146 167 104 144 170 239 164 124 189 207 159 168 135 108 133 185 58 25 63 17 15 21 15 12 68 134 145 179 210 233 247 216 228
173 156 142 162 159 157 146 186 206 188 155 162 136 151 199 171 171 218 197 210 294 104 118 164 186 148 162 292 118 197 237 132 49 336 152 155 161 191 212 212 237 273 232
175 157 161 181 162 172 168 183 202 214 165 170 140 153 184 206 175 213 197 166 221 149 224 201 165 158 276 122 139 204 283 288 175 174 228 181 171 167 266 221 219 251 292
176 165 175 180 181 154 156 172 229 168 241 125 166 151 176 186 179 235 226 246 165 209 193 181 190 134 152 190 180 224 264 271 220 201 192 149 249 218 204 247 212 201 239
170 167 173 182 180 168 160 211 196 179 215 182 169 158 167 203 177 225 170 180 218 259 203 93 251 184 207 204 118 219 231 238 242 230 187 178 187 19 149 239 230 199 220
171 170 176 187 178 182 188 192 197 200 201 191 176 142 157 230 160 223 235 173 213 216 233 227 221 244 210 155 172 240 245 229 248 236 198 201 178 199 199 203 238 220 206
177 180 179 185 182 195 192 201 199 206 190 204 185 165 182 233 247 206 250 263 202 263 183 226 234 227 229 197 184 131 284 247 333 250 100 151 202 186 212 219 224 220 208
186 187 183 188 186 196 204 197 193 204 245 189 214 200 195 216 234 226 238 268 296 272 222 222 230 231 223 202 171 229 237 218 240 152 209 212 206 179 212 224 218 222 217
196 187 190 190 191 195 208 192 199 202 199 209 200 208 209 192 221 224 240 244 260 261 198 215 215 229 210 218 196 236 268 292 243 271 192 193 208 178 202 210 227 222 228
191 190 190 190 192 198 195 227 193 228 207 217 203 195 201 192 207 230 226 213 243 240 261 278 258 215 232 218 232 183 236 249 256 244 280 175 192 217 214 211 221 205 209
191 193 192 182 192 198 197 207 217 201 233 228 208 186 215 208 202 203 217 217 219 237 254 242 256 252 230 256 243 245 247 244 230 226 238 266 250 230 224 218 216 234 204